Regional Weather Roundup
Issued by NWS Cleveland, OH

Home | Current Version | Previous Version | Graphics & Text | Print | Product List | Glossary On
Versions: 1 2 3 4 5 6 7 8 9 10 11 12 13 14 15 16 17 18 19 20 21 22 23 24 25 26 27 28 29 30 31 32 33 34 35 36 37 38 39 40 41 42 43 44 45 46 47 48 49 50
942
ASUS41 KCLE 231112
RWRCLE
OHIO REGIONAL WEATHER ROUNDUP
NATIONAL WEATHER SERVICE WILMINGTON, OH
700 AM EDT MON APR 23 2018

NOTE: "FAIR" INDICATES FEW OR NO CLOUDS BELOW 12,000 FEET WITH NO
SIGNIFICANT WEATHER AND/OR OBSTRUCTIONS TO VISIBILITY.

OHZ001>008-015>018-024>027-034-035-043-044-231200-
   NORTHWEST OHIO

CITY           SKY/WX    TMP DP  RH WIND       PRES   REMARKS
DEFIANCE       FAIR      40  30  67 NE7       30.20F
FINDLAY        FAIR      43  28  55 NE9       30.18S
TOLEDO EXPRESS FAIR      41  35  79 NE7       30.21S
TOLEDO EXEC    FAIR      43  35  73 NE8       30.23S
LIMA           FAIR      39  30  70 E7        30.17R
$$

OHZ009>014-019>023-028>033-038-089-231200-
   NORTHEAST OHIO

CITY           SKY/WX    TMP DP  RH WIND       PRES   REMARKS
CLE-HOPKINS    MOCLDY    52  35  52 SE13      30.27R
CLE-LAKEFRONT  FAIR      54  34  46 SE13G24   30.24R
CUY CO. ARPT   MOCLDY    54  34  47 SE17      30.27
LORAIN-ELYRIA  FAIR      48  31  51 SE5       30.24R
ASHTABULA      FAIR      48  27  44 SE9       30.31R
AKRON-CANTON   FAIR      50  36  58 E7        30.25R
WOOSTER        FAIR      47  37  68 E7        30.24R
MANSFIELD      FAIR      45  34  65 SE8       30.22R
YOUNGSTOWN     MOCLDY    47  32  56 E12       30.29R
$$

OHZ042-051>053-060>062-070>072-077>081-231200-
  SOUTHWEST OHIO

CITY           SKY/WX    TMP DP  RH WIND       PRES   REMARKS
CINC-COVINGTON MOCLDY    54  35  48 E8        30.08R
CINC-LUNKEN    FAIR      48  43  82 CALM      30.10R
HAMILTON       FAIR      52  36  54 E6        30.11R
DAYTON         MOCLDY    50  35  56 E10       30.14R
WRIGHT-PAT AFB FAIR      50  34  54 NE6       30.13R
DAYTON GENERAL FAIR      52  34  50 E9        30.11R
WILMINGTON     FAIR      48  36  63 E10       30.13R
$$

OHZ036-037-039>041-045>050-054>059-063>069-073>076-082>088-231200-
  CENTRAL AND SOUTHEAST OHIO

CITY           SKY/WX    TMP DP  RH WIND       PRES   REMARKS
COLUMBUS       FAIR      52  36  54 E10       30.17R
OSU AIRPORT    FAIR      45  35  68 E8        30.17R
BOLTON FIELD   FAIR      50  36  57 E6        30.17R
RICKENBACK AFB FAIR      48  36  62 E9        30.17R
NEWARK         FAIR      47  36  65 NE5       30.19R
MARION         FAIR      46  36  68 SE8       30.19R
LANCASTER      FAIR      40  36  86 CALM      30.18R
ZANESVILLE     FAIR      49  39  68 E7        30.22
NEW PHILLY     FAIR      50  38  63 E3        30.25R
$$




USA.gov is the U.S. government's official web portal to all federal, state and local government web resources and services.